User: anonymous   Login
Location: Unspecified
(0.0000°N, 0.0000°E)
Time: 09:57:55
(UTC+02:00)
Language:

Atlas Centaur 2 - Orbit

View from above orbital plane
View from above orbital plane
View from above satellite
View from above satellite

Ground track
Ground track

The orbit data is extracted from the following two-line orbital elements,

1 00694U 63047A   16179.83816155  .00000654  00000-0  70816-4 0  9991
2 00694  30.3591 313.9113 0589057 198.0234 159.8627 14.01787393632950
Epoch (UTC): 27 June 2016 20:06:57
Eccentricity: 0.0589057
inclination: 30.3591°
perigee height: 459 km
apogee height: 1315 km
right ascension of ascending node: 313.9113°
argument of perigee: 198.0234°
revolutions per day: 14.01787393
mean anomaly at epoch: 159.8627°
orbit number at epoch: 63295

The dashed part of the orbit path shows where the satellite is in the earth's shadow,  

DLR